Year,Month,Day,Hour,Minute,Value (Times are PST for temperature in C)
2010,06,27,07,48,12.80
2010,06,27,07,49,12.80
2010,06,27,07,50,12.70
2010,06,27,07,51,12.70
2010,06,27,07,52,12.70
2010,06,27,07,53,12.70
2010,06,27,07,54,12.70
2010,06,27,07,55,12.70
2010,06,27,07,56,12.80
2010,06,27,07,57,12.80
2010,06,27,07,58,12.80
2010,06,27,07,59,12.80
2010,06,27,08,00,12.80
2010,06,27,08,01,12.70
2010,06,27,08,02,12.60
2010,06,27,08,03,12.60
2010,06,27,08,04,12.60
2010,06,27,08,05,12.60
2010,06,27,08,06,12.60
2010,06,27,08,07,12.60
2010,06,27,08,08,12.60
2010,06,27,08,09,12.60
2010,06,27,08,10,12.60
2010,06,27,08,11,12.60
2010,06,27,08,12,12.60
2010,06,27,08,13,12.60
2010,06,27,08,14,12.60
2010,06,27,08,15,12.60
2010,06,27,08,16,12.60
2010,06,27,08,17,12.60
2010,06,27,08,18,12.60
2010,06,27,08,19,12.60
2010,06,27,08,20,12.60
2010,06,27,08,21,12.70
2010,06,27,08,22,12.70
2010,06,27,08,23,12.70
2010,06,27,08,24,12.70
2010,06,27,08,25,12.70
2010,06,27,08,26,12.70
2010,06,27,08,27,12.60
2010,06,27,08,28,12.60
2010,06,27,08,29,12.60
2010,06,27,08,30,12.60
2010,06,27,08,31,12.60
2010,06,27,08,32,12.60
2010,06,27,08,33,12.60
2010,06,27,08,34,12.60
2010,06,27,08,35,12.60
2010,06,27,08,36,12.50
2010,06,27,08,37,12.50
2010,06,27,08,38,12.50
2010,06,27,08,39,12.50
2010,06,27,08,40,12.50
2010,06,27,08,41,12.50
2010,06,27,08,42,12.50
2010,06,27,08,43,12.50
2010,06,27,08,44,12.50
2010,06,27,08,45,12.50
2010,06,27,08,46,12.50
2010,06,27,08,47,12.60
2010,06,27,08,48,12.60
2010,06,27,08,49,12.60
2010,06,27,08,50,12.60
2010,06,27,08,51,12.60
2010,06,27,08,52,12.60
2010,06,27,08,53,12.60
2010,06,27,08,54,12.60
2010,06,27,08,55,12.60
2010,06,27,08,56,12.60
2010,06,27,08,57,12.60
2010,06,27,08,58,12.60
2010,06,27,08,59,12.60
2010,06,27,09,00,12.70
2010,06,27,09,01,12.70
2010,06,27,09,02,12.80
2010,06,27,09,03,12.80
2010,06,27,09,04,12.80
2010,06,27,09,05,12.80
2010,06,27,09,06,12.80
2010,06,27,09,07,12.80
2010,06,27,09,08,12.80
2010,06,27,09,09,12.80
2010,06,27,09,10,12.90
2010,06,27,09,11,13.00
2010,06,27,09,12,13.00
2010,06,27,09,13,13.00
2010,06,27,09,14,13.10
2010,06,27,09,15,13.10
2010,06,27,09,16,13.20
2010,06,27,09,17,13.20
2010,06,27,09,18,13.20
2010,06,27,09,19,13.20
2010,06,27,09,20,13.20
2010,06,27,09,21,13.30
2010,06,27,09,22,13.30
2010,06,27,09,23,13.30
2010,06,27,09,24,13.20
2010,06,27,09,25,13.30
2010,06,27,09,26,13.30
2010,06,27,09,27,13.30
2010,06,27,09,28,13.30
2010,06,27,09,29,13.30
2010,06,27,09,30,13.30
2010,06,27,09,31,13.30
2010,06,27,09,32,13.30
2010,06,27,09,33,13.40
2010,06,27,09,34,13.40
2010,06,27,09,35,13.30
2010,06,27,09,36,13.30
2010,06,27,09,37,13.30
2010,06,27,09,38,13.30
2010,06,27,09,39,13.40
2010,06,27,09,40,13.40
2010,06,27,09,41,13.50
2010,06,27,09,42,13.50
2010,06,27,09,43,13.60
2010,06,27,09,44,13.60
2010,06,27,09,45,13.70
2010,06,27,09,46,13.70
2010,06,27,09,47,13.70
2010,06,27,09,48,13.80
2010,06,27,09,49,13.90
2010,06,27,09,50,13.90
2010,06,27,09,51,13.90
2010,06,27,09,52,13.90
2010,06,27,09,53,13.80
2010,06,27,09,54,13.80
2010,06,27,09,55,13.80
2010,06,27,09,56,13.80
2010,06,27,09,57,13.80
2010,06,27,09,58,13.80
2010,06,27,09,59,13.90
2010,06,27,10,00,13.80
2010,06,27,10,01,13.80
2010,06,27,10,02,13.80
2010,06,27,10,03,13.80
2010,06,27,10,04,13.80
2010,06,27,10,05,13.80
2010,06,27,10,06,13.80
2010,06,27,10,07,13.80
2010,06,27,10,08,13.70
2010,06,27,10,09,13.70
2010,06,27,10,10,13.70
2010,06,27,10,11,13.70
2010,06,27,10,12,13.70
2010,06,27,10,13,13.60
2010,06,27,10,14,13.60
2010,06,27,10,15,13.60
2010,06,27,10,16,13.60
2010,06,27,10,17,13.60
2010,06,27,10,18,13.60
2010,06,27,10,19,13.50
2010,06,27,10,20,13.40
2010,06,27,10,21,13.20
2010,06,27,10,22,13.20
2010,06,27,10,23,13.20
2010,06,27,10,24,13.20
2010,06,27,10,25,13.30
2010,06,27,10,26,13.30
2010,06,27,10,27,13.30
2010,06,27,10,28,13.30
2010,06,27,10,29,13.30
2010,06,27,10,30,13.30
2010,06,27,10,31,13.30
2010,06,27,10,32,13.40
2010,06,27,10,33,13.40
2010,06,27,10,34,13.40
2010,06,27,10,35,13.50
2010,06,27,10,36,13.50
2010,06,27,10,37,13.50
2010,06,27,10,38,13.50
2010,06,27,10,39,13.50
2010,06,27,10,40,13.50
2010,06,27,10,41,13.60
2010,06,27,10,42,13.60
2010,06,27,10,43,13.60
2010,06,27,10,44,13.60
2010,06,27,10,45,13.60
2010,06,27,10,46,13.70
2010,06,27,10,47,13.70
2010,06,27,10,48,13.70
2010,06,27,10,49,13.80
2010,06,27,10,50,13.80
2010,06,27,10,51,13.80
2010,06,27,10,52,13.90
2010,06,27,10,53,13.90
2010,06,27,10,54,13.80
2010,06,27,10,55,13.80
2010,06,27,10,56,13.80
2010,06,27,10,57,13.80
2010,06,27,10,58,13.80
2010,06,27,10,59,13.80
2010,06,27,11,00,13.80
2010,06,27,11,01,13.80
2010,06,27,11,02,13.80
2010,06,27,11,03,13.80
2010,06,27,11,04,13.90
2010,06,27,11,05,13.80
2010,06,27,11,06,13.80
2010,06,27,11,07,13.80
2010,06,27,11,08,13.80
2010,06,27,11,09,13.80
2010,06,27,11,10,13.80
2010,06,27,11,11,13.80
2010,06,27,11,12,13.80
2010,06,27,11,13,13.80
2010,06,27,11,14,13.90
2010,06,27,11,15,13.90
2010,06,27,11,16,13.90
2010,06,27,11,17,13.80
2010,06,27,11,18,13.80
2010,06,27,11,19,13.80
2010,06,27,11,20,13.80
2010,06,27,11,21,13.70
2010,06,27,11,22,13.70
2010,06,27,11,23,13.70
2010,06,27,11,24,13.70
2010,06,27,11,25,13.70
2010,06,27,11,26,13.70
2010,06,27,11,27,13.70
2010,06,27,11,28,13.70
2010,06,27,11,29,13.70
2010,06,27,11,30,13.70
2010,06,27,11,31,13.70
2010,06,27,11,32,13.70
2010,06,27,11,33,13.70
2010,06,27,11,34,13.80
2010,06,27,11,35,13.80
2010,06,27,11,36,13.80
2010,06,27,11,37,13.80
2010,06,27,11,38,13.80
2010,06,27,11,39,13.80
2010,06,27,11,40,13.70
2010,06,27,11,41,13.70
2010,06,27,11,42,13.80
2010,06,27,11,43,13.80
2010,06,27,11,44,13.80
2010,06,27,11,45,13.80
2010,06,27,11,46,13.80
2010,06,27,11,47,13.70
2010,06,27,11,48,13.80
2010,06,27,11,49,13.80
2010,06,27,11,50,13.80
2010,06,27,11,51,13.80
2010,06,27,11,52,13.90
2010,06,27,11,53,13.90
2010,06,27,11,54,13.80
2010,06,27,11,55,13.90
2010,06,27,11,56,13.90
2010,06,27,11,57,13.90
2010,06,27,11,58,14.00
2010,06,27,11,59,14.00
2010,06,27,12,00,14.00
2010,06,27,12,01,14.00
2010,06,27,12,02,14.00
2010,06,27,12,03,14.00
2010,06,27,12,04,14.00
2010,06,27,12,05,14.00
2010,06,27,12,06,14.10
2010,06,27,12,07,14.10
2010,06,27,12,08,14.20
2010,06,27,12,09,14.20
2010,06,27,12,10,14.20
2010,06,27,12,11,14.10
2010,06,27,12,12,14.00
2010,06,27,12,13,14.00
2010,06,27,12,14,14.00
2010,06,27,12,15,14.00
2010,06,27,12,16,14.00
2010,06,27,12,17,14.00
2010,06,27,12,18,14.10
2010,06,27,12,19,14.10
2010,06,27,12,20,14.20
2010,06,27,12,21,14.20
2010,06,27,12,22,14.30
2010,06,27,12,23,14.40
2010,06,27,12,24,14.40
2010,06,27,12,25,14.50
2010,06,27,12,26,14.50
2010,06,27,12,27,14.60
2010,06,27,12,28,14.60
2010,06,27,12,29,14.60
2010,06,27,12,30,14.70
2010,06,27,12,31,14.70
2010,06,27,12,32,14.80
2010,06,27,12,33,14.80
2010,06,27,12,34,14.80
2010,06,27,12,35,14.90
2010,06,27,12,36,14.90
2010,06,27,12,37,15.00
2010,06,27,12,38,15.00
2010,06,27,12,39,15.00
2010,06,27,12,40,15.00
2010,06,27,12,41,14.90
2010,06,27,12,42,14.90
2010,06,27,12,43,14.90
2010,06,27,12,44,15.00
2010,06,27,12,45,15.00
2010,06,27,12,46,15.00
2010,06,27,12,47,15.00
2010,06,27,12,48,15.00
2010,06,27,12,49,15.10
2010,06,27,12,50,15.20
2010,06,27,12,51,15.30
2010,06,27,12,52,15.30
2010,06,27,12,53,15.30
2010,06,27,12,54,15.30
2010,06,27,12,55,15.30
2010,06,27,12,56,15.30
2010,06,27,12,57,15.30
2010,06,27,12,58,15.30
2010,06,27,12,59,15.40
2010,06,27,13,00,15.50
2010,06,27,13,01,15.50
2010,06,27,13,02,15.60
2010,06,27,13,03,15.60
2010,06,27,13,04,15.60
2010,06,27,13,05,15.50
2010,06,27,13,06,15.30
2010,06,27,13,07,15.30
2010,06,27,13,08,15.20
2010,06,27,13,09,15.20
2010,06,27,13,10,15.10
2010,06,27,13,11,15.00
2010,06,27,13,12,15.00
2010,06,27,13,13,14.90
2010,06,27,13,14,14.90
2010,06,27,13,15,14.80
2010,06,27,13,16,14.80
2010,06,27,13,17,14.80
2010,06,27,13,18,14.80
2010,06,27,13,19,14.90
2010,06,27,13,20,14.90
2010,06,27,13,21,15.00
2010,06,27,13,22,15.00
2010,06,27,13,23,15.10
2010,06,27,13,24,15.10
2010,06,27,13,25,15.00
2010,06,27,13,26,15.00
2010,06,27,13,27,15.00
2010,06,27,13,28,15.00
2010,06,27,13,29,15.10
2010,06,27,13,30,15.00
2010,06,27,13,31,15.00
2010,06,27,13,32,15.00
2010,06,27,13,33,14.90
2010,06,27,13,34,14.80
2010,06,27,13,35,14.80
2010,06,27,13,36,14.80
2010,06,27,13,37,14.70
2010,06,27,13,38,14.70
2010,06,27,13,39,14.80
2010,06,27,13,40,14.80
2010,06,27,13,41,14.80
2010,06,27,13,42,14.90
2010,06,27,13,43,14.90
2010,06,27,13,44,14.90
2010,06,27,13,45,15.00
2010,06,27,13,46,15.00
2010,06,27,13,47,15.00
2010,06,27,13,48,15.10
2010,06,27,13,49,15.10
2010,06,27,13,50,15.10
2010,06,27,13,51,15.20
2010,06,27,13,52,15.30
2010,06,27,13,53,15.30
2010,06,27,13,54,15.30
2010,06,27,13,55,15.40
2010,06,27,13,56,15.40
2010,06,27,13,57,15.40
2010,06,27,13,58,15.40
2010,06,27,13,59,15.40
2010,06,27,14,00,15.30
2010,06,27,14,01,15.30
2010,06,27,14,02,15.30
2010,06,27,14,03,15.30
2010,06,27,14,04,15.30
2010,06,27,14,05,15.30
2010,06,27,14,06,15.30
2010,06,27,14,07,15.30
2010,06,27,14,08,15.30
2010,06,27,14,09,15.40
2010,06,27,14,10,15.40
2010,06,27,14,11,15.50
2010,06,27,14,12,15.50
2010,06,27,14,13,15.60
2010,06,27,14,14,15.60
2010,06,27,14,15,15.70
2010,06,27,14,16,15.80
2010,06,27,14,17,15.80
2010,06,27,14,18,15.80
2010,06,27,14,19,15.80
2010,06,27,14,20,15.80
2010,06,27,14,21,15.80
2010,06,27,14,22,15.80
2010,06,27,14,23,15.80
2010,06,27,14,24,15.80
2010,06,27,14,25,15.80
2010,06,27,14,26,15.80
2010,06,27,14,27,15.80
2010,06,27,14,28,15.70
2010,06,27,14,29,15.70
2010,06,27,14,30,15.70
2010,06,27,14,31,15.60
2010,06,27,14,32,15.60
2010,06,27,14,33,15.50
2010,06,27,14,34,15.40
2010,06,27,14,35,15.40
2010,06,27,14,36,15.40
2010,06,27,14,37,15.50
2010,06,27,14,38,15.50
2010,06,27,14,39,15.50
2010,06,27,14,40,15.60
2010,06,27,14,41,15.60
2010,06,27,14,42,15.70
2010,06,27,14,43,15.80
2010,06,27,14,44,15.80
2010,06,27,14,45,16.00
2010,06,27,14,46,16.10
2010,06,27,14,47,16.10
2010,06,27,14,48,16.10
2010,06,27,14,49,16.20
2010,06,27,14,50,16.20
2010,06,27,14,51,16.20
2010,06,27,14,52,16.30
2010,06,27,14,53,16.40
2010,06,27,14,54,16.40
2010,06,27,14,55,16.40
2010,06,27,14,56,16.40
2010,06,27,14,57,16.40
2010,06,27,14,58,16.40
2010,06,27,14,59,16.40
2010,06,27,15,00,16.50
2010,06,27,15,01,16.60
2010,06,27,15,02,16.60
2010,06,27,15,03,16.60
2010,06,27,15,04,16.70
2010,06,27,15,05,16.60
2010,06,27,15,06,16.60
2010,06,27,15,07,16.50
2010,06,27,15,08,16.40
2010,06,27,15,09,16.40
2010,06,27,15,10,16.40
2010,06,27,15,11,16.40
2010,06,27,15,12,16.40
2010,06,27,15,13,16.30
2010,06,27,15,14,16.20
2010,06,27,15,15,16.20
2010,06,27,15,16,16.20
2010,06,27,15,17,16.10
2010,06,27,15,18,16.10
2010,06,27,15,19,16.10
2010,06,27,15,20,16.10
2010,06,27,15,21,16.00
2010,06,27,15,22,15.90
2010,06,27,15,23,15.80
2010,06,27,15,24,15.80
2010,06,27,15,25,15.80
2010,06,27,15,26,15.80
2010,06,27,15,27,15.80
2010,06,27,15,28,15.80
2010,06,27,15,29,15.80
2010,06,27,15,30,15.80
2010,06,27,15,31,15.80
2010,06,27,15,32,15.80
2010,06,27,15,33,15.80
2010,06,27,15,34,15.80
2010,06,27,15,35,15.90
2010,06,27,15,36,15.90
2010,06,27,15,37,15.90
2010,06,27,15,38,15.90
2010,06,27,15,39,16.00
2010,06,27,15,40,16.10
2010,06,27,15,41,16.10
2010,06,27,15,42,16.00
2010,06,27,15,43,15.90
2010,06,27,15,44,15.90
2010,06,27,15,45,15.80
2010,06,27,15,46,15.80
2010,06,27,15,47,15.80
2010,06,27,15,48,15.80
2010,06,27,15,49,15.80
2010,06,27,15,50,15.80
2010,06,27,15,51,15.80
2010,06,27,15,52,15.80
2010,06,27,15,53,15.80
2010,06,27,15,54,15.80
2010,06,27,15,55,15.80
2010,06,27,15,56,15.80
2010,06,27,15,57,15.80
2010,06,27,15,58,15.80
2010,06,27,15,59,15.80
2010,06,27,16,00,15.80
2010,06,27,16,01,15.80
2010,06,27,16,02,15.90
2010,06,27,16,03,15.90
2010,06,27,16,04,16.10
2010,06,27,16,05,16.10
2010,06,27,16,06,16.10
2010,06,27,16,07,16.20
2010,06,27,16,08,16.20
2010,06,27,16,09,16.30
2010,06,27,16,10,16.30
2010,06,27,16,11,16.40
2010,06,27,16,12,16.40
2010,06,27,16,13,16.40
2010,06,27,16,14,16.40
2010,06,27,16,15,16.40
2010,06,27,16,16,16.40
2010,06,27,16,17,16.40
2010,06,27,16,18,16.40
2010,06,27,16,19,16.40
2010,06,27,16,20,16.40
2010,06,27,16,21,16.40
2010,06,27,16,22,16.40
2010,06,27,16,23,16.40
2010,06,27,16,24,16.40
2010,06,27,16,25,16.30
2010,06,27,16,26,16.30
2010,06,27,16,27,16.20
2010,06,27,16,28,16.30
2010,06,27,16,29,16.30
2010,06,27,16,30,16.30
2010,06,27,16,31,16.30
2010,06,27,16,32,16.30
2010,06,27,16,33,16.30
2010,06,27,16,34,16.20
2010,06,27,16,35,16.20
2010,06,27,16,36,16.20
2010,06,27,16,37,16.20
2010,06,27,16,38,16.20
2010,06,27,16,39,16.20
2010,06,27,16,40,16.20
2010,06,27,16,41,16.20
2010,06,27,16,42,16.20
2010,06,27,16,43,16.20
2010,06,27,16,44,16.20
2010,06,27,16,45,16.20
2010,06,27,16,46,16.30
2010,06,27,16,47,16.30
2010,06,27,16,48,16.40
2010,06,27,16,49,16.40
2010,06,27,16,50,16.40
2010,06,27,16,51,16.40
2010,06,27,16,52,16.40
2010,06,27,16,53,16.40
2010,06,27,16,54,16.40
2010,06,27,16,55,16.40
2010,06,27,16,56,16.40
2010,06,27,16,57,16.50
2010,06,27,16,58,16.60
2010,06,27,16,59,16.60
2010,06,27,17,00,16.40
2010,06,27,17,01,16.40
2010,06,27,17,02,16.40
2010,06,27,17,03,16.50
2010,06,27,17,04,16.60
2010,06,27,17,05,16.60
2010,06,27,17,06,16.60
2010,06,27,17,07,16.60
2010,06,27,17,08,16.60
2010,06,27,17,09,16.70
2010,06,27,17,10,16.70
2010,06,27,17,11,16.70
2010,06,27,17,12,16.70
2010,06,27,17,13,16.70
2010,06,27,17,14,16.60
2010,06,27,17,15,16.60
2010,06,27,17,16,16.50
2010,06,27,17,17,16.40
2010,06,27,17,18,16.40
2010,06,27,17,19,16.40
2010,06,27,17,20,16.40
2010,06,27,17,21,16.40
2010,06,27,17,22,16.40
2010,06,27,17,23,16.40
2010,06,27,17,24,16.40
2010,06,27,17,25,16.40
2010,06,27,17,26,16.40
2010,06,27,17,27,16.40
2010,06,27,17,28,16.40
2010,06,27,17,29,16.40
2010,06,27,17,30,16.40
2010,06,27,17,31,16.40
2010,06,27,17,32,16.40
2010,06,27,17,33,16.40
2010,06,27,17,34,16.40
2010,06,27,17,35,16.40
2010,06,27,17,36,16.40
2010,06,27,17,37,16.40
2010,06,27,17,38,16.40
2010,06,27,17,39,16.40
2010,06,27,17,40,16.40
2010,06,27,17,41,16.40
2010,06,27,17,42,16.40
2010,06,27,17,43,16.40
2010,06,27,17,44,16.40
2010,06,27,17,45,16.40
2010,06,27,17,46,16.30
2010,06,27,17,47,16.30
2010,06,27,17,48,16.40
2010,06,27,17,49,16.30
2010,06,27,17,50,16.30
2010,06,27,17,51,16.30
2010,06,27,17,52,16.30
2010,06,27,17,53,16.40
2010,06,27,17,54,16.40
2010,06,27,17,55,16.40
2010,06,27,17,56,16.30
2010,06,27,17,57,16.30
2010,06,27,17,58,16.30
2010,06,27,17,59,16.30
2010,06,27,18,00,16.20
2010,06,27,18,01,16.20
2010,06,27,18,02,16.20
2010,06,27,18,03,16.20
2010,06,27,18,04,16.20
2010,06,27,18,05,16.10
2010,06,27,18,06,16.10
2010,06,27,18,07,16.10
2010,06,27,18,08,16.10
2010,06,27,18,09,16.10
2010,06,27,18,10,16.10
2010,06,27,18,11,16.10
2010,06,27,18,12,16.10
2010,06,27,18,13,16.10
2010,06,27,18,14,16.00
2010,06,27,18,15,15.90
2010,06,27,18,16,15.90
2010,06,27,18,17,15.90
2010,06,27,18,18,15.90
2010,06,27,18,19,15.80
2010,06,27,18,20,15.80
2010,06,27,18,21,15.80
2010,06,27,18,22,15.80
2010,06,27,18,23,15.80
2010,06,27,18,24,15.90
2010,06,27,18,25,15.90
2010,06,27,18,26,15.90
2010,06,27,18,27,15.90
2010,06,27,18,28,15.90
2010,06,27,18,29,15.80
2010,06,27,18,30,15.80
2010,06,27,18,31,15.80
2010,06,27,18,32,15.80
2010,06,27,18,33,15.80
2010,06,27,18,34,15.80
2010,06,27,18,35,15.80
2010,06,27,18,36,15.80
2010,06,27,18,37,15.80
2010,06,27,18,38,15.80
2010,06,27,18,39,15.80
2010,06,27,18,40,15.80
2010,06,27,18,41,15.80
2010,06,27,18,42,15.80
2010,06,27,18,43,15.80
2010,06,27,18,44,15.80
2010,06,27,18,45,15.80
2010,06,27,18,46,15.80
2010,06,27,18,47,15.80
2010,06,27,18,48,15.90
2010,06,27,18,49,15.90
2010,06,27,18,50,15.90
2010,06,27,18,51,15.90
2010,06,27,18,52,15.90
2010,06,27,18,53,15.90
2010,06,27,18,54,15.90
2010,06,27,18,55,15.80
2010,06,27,18,56,15.80
2010,06,27,18,57,15.80
2010,06,27,18,58,15.80
2010,06,27,18,59,15.80
2010,06,27,19,00,15.80
2010,06,27,19,01,15.80
2010,06,27,19,02,15.80
2010,06,27,19,03,15.80
2010,06,27,19,04,15.80
2010,06,27,19,05,15.80
2010,06,27,19,06,15.80
2010,06,27,19,07,15.80
2010,06,27,19,08,15.80
2010,06,27,19,09,15.80
2010,06,27,19,10,15.80
2010,06,27,19,11,15.80
2010,06,27,19,12,15.80
2010,06,27,19,13,15.80
2010,06,27,19,14,15.80
2010,06,27,19,15,15.80
2010,06,27,19,16,15.80
2010,06,27,19,17,15.80
2010,06,27,19,18,15.70
2010,06,27,19,19,15.70
2010,06,27,19,20,15.70
2010,06,27,19,21,15.70
2010,06,27,19,22,15.80
2010,06,27,19,23,15.80
2010,06,27,19,24,15.80
2010,06,27,19,25,15.80
2010,06,27,19,26,15.80
2010,06,27,19,27,15.80
2010,06,27,19,28,15.80
2010,06,27,19,29,15.80
2010,06,27,19,30,15.80
2010,06,27,19,31,15.80
2010,06,27,19,32,15.80
2010,06,27,19,33,15.80
2010,06,27,19,34,15.80
2010,06,27,19,35,15.80
2010,06,27,19,36,15.80
2010,06,27,19,37,15.80
2010,06,27,19,38,15.80
2010,06,27,19,39,15.80
2010,06,27,19,40,15.80
2010,06,27,19,41,15.80
2010,06,27,19,42,15.80
2010,06,27,19,43,15.80
2010,06,27,19,44,15.80
2010,06,27,19,45,15.80
2010,06,27,19,46,15.80
2010,06,27,19,47,15.80
2010,06,27,19,48,15.80
2010,06,27,19,49,15.70
2010,06,27,19,50,15.70
2010,06,27,19,51,15.70
2010,06,27,19,52,15.70
2010,06,27,19,53,15.70
2010,06,27,19,54,15.70
2010,06,27,19,55,15.60
2010,06,27,19,56,15.60
2010,06,27,19,57,15.60
2010,06,27,19,58,15.60
2010,06,27,19,59,15.60
2010,06,27,20,00,15.60
2010,06,27,20,01,15.60
2010,06,27,20,02,15.50
2010,06,27,20,03,15.50
2010,06,27,20,04,15.50
2010,06,27,20,05,15.50
2010,06,27,20,06,15.50
2010,06,27,20,07,15.50
2010,06,27,20,08,15.50
2010,06,27,20,09,15.50
2010,06,27,20,10,15.50
2010,06,27,20,11,15.50
2010,06,27,20,12,15.40
2010,06,27,20,13,15.40
2010,06,27,20,14,15.40
2010,06,27,20,15,15.40
2010,06,27,20,16,15.40
2010,06,27,20,17,15.40
2010,06,27,20,18,15.40
2010,06,27,20,19,15.40
2010,06,27,20,20,15.40
2010,06,27,20,21,15.50
2010,06,27,20,22,15.50
2010,06,27,20,23,15.50
2010,06,27,20,24,15.50
2010,06,27,20,25,15.50
2010,06,27,20,26,15.50
2010,06,27,20,27,15.50
2010,06,27,20,28,15.40
2010,06,27,20,29,15.40
2010,06,27,20,30,15.40
2010,06,27,20,31,15.40
2010,06,27,20,32,15.40
2010,06,27,20,33,15.40
2010,06,27,20,34,15.40
2010,06,27,20,35,15.40
2010,06,27,20,36,15.40
2010,06,27,20,37,15.40
